Terug naar catalogus

GAOFEN 9 DEB

ActiefSSO
NORAD 44600·DEBRIS·🇨🇳 China

Gelanceerd Sep 14, 2015 vanaf Jiuquan Satellite Launch Center

Loading…

Volgende Passages (komende 24 uur)

TLE

VersSource: Space-Track

Epoch: Sep 12, 2026, 17:59 UTC

1 44600U 15047B   26255.74957419  .00001689  00000-0  30272-3 0  9998
2 44600  98.1394 182.1643 0150713 155.5003 205.3458 14.60975178578624

Volg GAOFEN 9 DEB in realtime met AllMySat

Download on the App Store